Weather reports worldwide

Advertisment
Shawbury, United Kingdom (3414): temperature & dewpoint: 20.05.2019 19:00:00 - 26.05.2019 19:00:00 (BST)Shawbury, United Kingdom (3414): temperature -20cm & temperature -100cm: 20.05.2019 19:00:00 - 26.05.2019 19:00:00 (BST)Shawbury, United Kingdom (3414): wind speed & gusts: 20.05.2019 19:00:00 - 26.05.2019 19:00:00 (BST)Shawbury, United Kingdom (3414): wind direction: 20.05.2019 19:00:00 - 26.05.2019 19:00:00 (BST)Shawbury, United Kingdom (3414): reduced air pressure: 20.05.2019 19:00:00 - 26.05.2019 19:00:00 (BST)Shawbury, United Kingdom (3414): visibility: 20.05.2019 19:00:00 - 26.05.2019 19:00:00 (BST)Shawbury, United Kingdom (3414): sunshine duration: 20.05.2019 19:00:00 - 26.05.2019 19:00:00 (BST)Shawbury, United Kingdom (3414): precipitation: 20.05.2019 19:00:00 - 26.05.2019 19:00:00 (BST)
Date & Time tt [°C] td [°C] tt -20cm [°C] tt -100cm [°C] ff [km/h] ff [kn] fx [km/h] fx [kn] dd ppp [hPa] vv [km] sd [min] rr [mm]
26.05.2019 19:00:00 16,3 7,6 - - 18 10 - - WNW 1011,6 30 30 -
26.05.2019 18:00:00 15,8 6,8 - - 22 12 - - NW 1011,7 30 12 0,0
26.05.2019 17:00:00 16,6 8,1 - - 24 13 46 25 WNW 1011,4 30 30 0,0
26.05.2019 16:00:00 18,6 9,6 - - 31 17 46 25 W 1011,1 10 42 0,0
26.05.2019 15:00:00 17,7 11,7 - - 21 11 - - WNW 1010,8 10 12 0,0
26.05.2019 14:00:00 18,3 12,5 - - 28 15 50 27 W 1010,6 35 0 0,0
26.05.2019 13:00:00 18,3 14,8 - - 29 16 46 25 WSW 1010,7 35 6 0,0
26.05.2019 12:00:00 17,8 14,3 - - 29 16 - - W 1011,1 30 6 0,0
26.05.2019 11:00:00 16,0 13,7 - - 26 14 - - WSW 1011,5 14 0 0,2
26.05.2019 10:00:00 16,2 13,8 10,7 11,4 22 12 - - WSW 1011,4 30 0 0,0
26.05.2019 09:00:00 15,9 13,6 - - 24 13 - - WSW 1011,8 26 0 0,0
26.05.2019 08:00:00 15,6 13,9 - - 16 9 - - WSW 1011,9 20 0 0,2
26.05.2019 07:00:00 15,8 13,2 - - 29 16 48 26 SW 1012,2 22 0 0,0
26.05.2019 06:00:00 14,9 12,8 - - 22 12 - - SW 1012,6 10 0 0,0
26.05.2019 05:00:00 15,2 12,7 - - 16 9 - - SSW 1013,2 21 0 0,0
26.05.2019 04:00:00 14,9 12,4 - - 16 9 - - SW 1013,9 19 0 0,0
26.05.2019 03:00:00 14,9 12,2 - - 24 13 - - WSW 1014,3 20 0 0,0
26.05.2019 02:00:00 15,0 11,8 - - 22 12 - - WSW 1014,9 23 0 0,0
26.05.2019 01:00:00 14,8 11,9 - - 22 12 - - WSW 1015,6 23 - 0,0
26.05.2019 00:00:00 14,7 12,2 - - 22 12 - - WSW 1016,3 20 0 0,0
25.05.2019 23:00:00 14,6 12,1 - - 24 13 - - WSW 1016,8 20 0 0,0
25.05.2019 22:00:00 14,9 11,4 - - 15 8 - - SW 1017,1 26 0 0,0
25.05.2019 21:00:00 15,4 11,2 - - 16 9 - - WSW 1017,2 22 0 0,0
25.05.2019 20:00:00 16,1 11,2 - - 16 9 - - W 1017,3 25 0 0,0
25.05.2019 19:00:00 17,3 11,6 - - 24 13 - - WSW 1017,4 24 0 0,0
25.05.2019 18:00:00 17,6 11,5 - - 18 10 - - W 1017,5 23 0 0,0
25.05.2019 17:00:00 18,6 11,9 - - 21 11 - - W 1017,5 22 0 0,0
25.05.2019 16:00:00 18,8 11,2 - - 13 7 - - WNW 1017,6 23 0 0,0
25.05.2019 15:00:00 18,9 11,9 - - 11 6 - - NW 1017,8 19 0 0,0
25.05.2019 14:00:00 18,9 10,6 - - 15 8 - - W 1018,0 26 0 0,0
25.05.2019 13:00:00 18,4 11,7 - - 11 6 - - NNW 1018,4 22 0 0,0
25.05.2019 12:00:00 18,6 12,2 - - 9 5 - - NW 1018,6 28 36 0,0
25.05.2019 11:00:00 17,0 10,8 - - 5 3 - - NNW 1019,1 10 54 0,0
25.05.2019 10:00:00 16,2 12,2 10,5 11,2 11 6 - - NW 1019,3 17 36 0,0
25.05.2019 09:00:00 14,8 11,2 - - 9 5 - - NNW 1019,4 10 60 0,0
25.05.2019 08:00:00 13,7 10,5 - - 13 7 - - NW 1019,6 17 60 0,0
25.05.2019 07:00:00 12,2 10,7 - - 2 1 - - WNW 1019,5 16 24 0,0
25.05.2019 06:00:00 11,6 10,4 - - 8 4 - - NW 1019,2 14 0 0,0
25.05.2019 05:00:00 11,0 9,9 - - 9 5 - - WSW 1018,9 10 0 0,0
25.05.2019 04:00:00 12,4 10,6 - - 13 7 - - W 1018,8 14 0 0,0
25.05.2019 03:00:00 12,8 10,7 - - 15 8 - - W 1018,9 14 0 0,0
25.05.2019 02:00:00 12,9 11,1 - - 15 8 - - W 1018,9 13 0 0,0
25.05.2019 01:00:00 13,0 11,1 - - 9 5 - - WSW 1019,1 13 - 0,0
25.05.2019 00:00:00 13,2 10,9 - - 5 3 - - W 1019,1 17 0 0,0
24.05.2019 23:00:00 12,7 10,3 - - 11 6 - - NNW 1019,3 10 0 0,0
24.05.2019 22:00:00 13,2 9,9 - - 9 5 - - WNW 1019,0 10 0 0,0
24.05.2019 21:00:00 14,4 10,1 - - 15 8 - - NNW 1018,8 23 0 0,0
24.05.2019 20:00:00 15,3 10,6 - - 11 6 - - NNW 1018,4 21 0 0,0
24.05.2019 19:00:00 15,5 10,2 - - 18 10 - - NNW 1018,2 23 0 0,0
24.05.2019 18:00:00 16,6 10,2 - - 15 8 - - NNW 1018,0 25 0 0,0
24.05.2019 17:00:00 17,5 10,7 - - 16 9 - - NNW 1018,1 35 0 0,0
24.05.2019 16:00:00 17,2 9,9 - - 15 8 - - NW 1018,3 10 0 0,0
24.05.2019 15:00:00 17,5 10,6 - - 16 9 - - NW 1018,1 30 12 0,0
24.05.2019 14:00:00 18,1 11,1 - - 18 10 - - NW 1018,1 30 30 0,0
24.05.2019 13:00:00 17,5 10,7 - - 16 9 - - NW 1018,3 10 18 0,0
24.05.2019 12:00:00 16,4 10,7 - - 13 7 - - NW 1018,4 25 6 0,0
24.05.2019 11:00:00 15,8 10,6 - - 16 9 - - W 1018,3 10 0 0,0
24.05.2019 10:00:00 15,0 10,6 10,2 11,0 13 7 - - WNW 1018,2 10 18 0,0
24.05.2019 09:00:00 13,0 10,4 - - 8 4 - - W 1018,3 10 12 0,0
24.05.2019 08:00:00 11,5 9,6 - - 15 8 - - W 1018,1 10 12 0,0
24.05.2019 07:00:00 10,0 9,2 - - 4 2 - - S 1017,7 20 42 0,0
24.05.2019 06:00:00 8,1 7,4 - - 2 1 - - S 1017,6 11 0 0,0
24.05.2019 05:00:00 7,5 7,3 - - 4 2 - - SSE 1017,5 12 0 0,0
24.05.2019 04:00:00 7,0 6,4 - - 15 8 - - WSW 1017,4 10 0 0,0
24.05.2019 03:00:00 7,1 6,6 - - 11 6 - - WSW 1017,4 12 0 0,0
24.05.2019 02:00:00 7,2 6,4 - - 5 3 - - WSW 1017,1 10 0 0,0
24.05.2019 01:00:00 8,5 7,1 - - 2 1 - - S 1017,1 10 - 0,0
24.05.2019 00:00:00 9,0 6,9 - - 8 4 - - W 1017,0 10 0 0,0
23.05.2019 23:00:00 10,2 6,9 - - 9 5 - - W 1017,0 10 0 0,0
23.05.2019 22:00:00 11,4 7,6 - - 9 5 - - W 1016,8 40 0 0,0
23.05.2019 21:00:00 13,4 7,5 - - 9 5 - - NNW 1016,3 10 30 0,0
23.05.2019 20:00:00 15,0 8,9 - - 13 7 - - NNW 1015,9 10 30 0,0
23.05.2019 19:00:00 17,1 9,4 - - 16 9 - - NNW 1015,3 10 60 0,0
23.05.2019 18:00:00 19,0 5,1 - - 18 10 - - W 1015,0 10 60 0,0
23.05.2019 17:00:00 19,0 6,2 - - 13 7 - - W 1015,0 10 60 0,0
23.05.2019 16:00:00 19,1 5,2 - - 15 8 - - WSW 1014,9 10 60 0,0
23.05.2019 15:00:00 18,5 3,8 - - 15 8 - - WSW 1015,2 10 60 0,0
23.05.2019 14:00:00 18,7 5,7 - - 16 9 - - WSW 1015,5 10 60 0,0
23.05.2019 13:00:00 17,1 6,1 - - 16 9 - - SSW 1015,8 40 60 0,0
23.05.2019 12:00:00 17,1 7,4 - - 13 7 - - SSW 1016,2 10 60 0,0
23.05.2019 11:00:00 15,9 4,4 - - 11 6 - - WSW 1016,4 10 60 0,0
23.05.2019 10:00:00 14,0 6,8 10,0 11,0 11 6 - - SSW 1016,8 10 54 0,0
23.05.2019 09:00:00 12,5 5,8 - - 11 6 - - WSW 1016,9 40 60 0,0
23.05.2019 08:00:00 10,5 6,4 - - 5 3 - - SSW 1017,2 10 60 0,0
23.05.2019 07:00:00 8,0 6,1 - - 2 1 - - NNE 1017,1 10 24 0,0
23.05.2019 06:00:00 5,6 4,2 - - 0 0 - - N 1017,1 18 0 0,0
23.05.2019 05:00:00 6,1 5,1 - - 2 1 - - W 1017,3 10 0 0,0
23.05.2019 04:00:00 6,0 3,9 - - 2 1 - - E 1017,4 17 0 0,0
23.05.2019 03:00:00 7,9 6,0 - - 8 4 - - SW 1017,5 10 0 0,0
23.05.2019 02:00:00 7,7 5,8 - - 5 3 - - WSW 1018,0 10 0 0,0
23.05.2019 01:00:00 9,1 5,7 - - 9 5 - - SW 1018,0 10 - 0,0
23.05.2019 00:00:00 8,9 5,8 - - 9 5 - - WSW 1018,1 10 0 0,0
22.05.2019 23:00:00 9,2 5,0 - - 15 8 - - W 1018,2 10 0 0,0
22.05.2019 22:00:00 12,1 5,2 - - 9 5 - - WSW 1018,3 10 0 0,0
22.05.2019 21:00:00 13,2 4,5 - - 16 9 - - W 1018,1 10 6 0,0
22.05.2019 20:00:00 14,3 6,7 - - 11 6 - - W 1017,9 10 0 0,0
22.05.2019 19:00:00 15,8 7,3 - - 15 8 - - W 1018,1 50 0 0,0
22.05.2019 18:00:00 16,6 5,3 - - 22 12 - - W 1018,1 10 30 0,0
22.05.2019 17:00:00 18,2 7,0 - - 22 12 - - WSW 1018,0 10 54 0,0
22.05.2019 16:00:00 17,5 3,8 - - 18 10 - - W 1018,4 10 42 0,0
22.05.2019 15:00:00 17,4 6,4 - - 18 10 - - WSW 1018,6 10 60 0,0
22.05.2019 14:00:00 16,9 5,2 - - 24 13 - - WSW 1019,0 10 54 0,0
22.05.2019 13:00:00 17,2 5,5 - - 26 14 - - WSW 1019,0 10 60 0,0
22.05.2019 12:00:00 16,2 7,2 - - 22 12 - - WSW 1019,2 10 24 0,0
22.05.2019 11:00:00 14,9 7,1 - - 21 11 - - SW 1019,4 40 6 0,0
22.05.2019 10:00:00 13,4 7,4 10,0 10,9 11 6 - - SW 1019,7 10 0 0,0
22.05.2019 09:00:00 11,5 6,9 - - 2 1 - - S 1019,9 22 6 0,0
22.05.2019 08:00:00 9,5 6,2 - - 5 3 - - SSE 1020,0 10 0 0,0
22.05.2019 07:00:00 9,0 6,4 - - 4 2 - - SSW 1020,1 10 0 0,0
22.05.2019 06:00:00 8,3 5,8 - - 5 3 - - SSW 1019,9 30 0 0,0
22.05.2019 05:00:00 7,4 5,4 - - 5 3 - - SW 1020,1 22 0 0,0
22.05.2019 04:00:00 7,8 4,9 - - 2 1 - - NNW 1020,5 22 0 0,0
22.05.2019 03:00:00 7,1 5,2 - - 2 1 - - NW 1020,7 23 0 0,0
22.05.2019 02:00:00 6,6 4,3 - - 2 1 - - W 1020,8 25 0 0,0
22.05.2019 01:00:00 6,8 4,0 - - 4 2 - - NNW 1020,9 10 - 0,0
22.05.2019 00:00:00 6,5 3,9 - - 2 1 - - NNW 1021,1 10 0 0,0
21.05.2019 23:00:00 8,2 3,7 - - 5 3 - - WSW 1021,0 10 0 0,0
21.05.2019 22:00:00 9,2 3,7 - - 9 5 - - NW 1020,8 10 0 0,0
21.05.2019 21:00:00 10,9 4,2 - - 11 6 - - NNW 1020,6 10 42 0,0
21.05.2019 20:00:00 13,7 4,2 - - 15 8 - - NNW 1020,2 10 36 0,0
21.05.2019 19:00:00 14,3 5,4 - - 15 8 - - NNW 1020,2 50 60 0,0
21.05.2019 18:00:00 14,4 5,1 - - 21 11 - - N 1020,2 10 54 0,0
21.05.2019 17:00:00 15,9 6,7 - - 21 11 - - NNW 1020,1 10 60 0,0
21.05.2019 16:00:00 16,1 6,5 - - 18 10 - - NNW 1019,9 10 60 0,0
21.05.2019 15:00:00 16,1 6,9 - - 18 10 - - N 1019,9 10 60 0,0
21.05.2019 14:00:00 15,2 5,9 - - 18 10 - - NNW 1019,9 10 54 0,0
21.05.2019 13:00:00 15,2 6,7 - - 18 10 - - NNW 1020,0 10 54 0,0
21.05.2019 12:00:00 14,4 6,7 - - 15 8 - - NW 1020,0 10 36 0,0
21.05.2019 11:00:00 14,7 7,7 - - 16 9 - - NNW 1019,8 10 60 0,0
21.05.2019 10:00:00 13,3 8,2 10,2 10,9 15 8 - - NNW 1019,8 10 48 0,0
21.05.2019 09:00:00 11,4 7,4 - - 15 8 - - NW 1019,7 35 60 0,0
21.05.2019 08:00:00 10,3 7,7 - - 16 9 - - WNW 1019,3 10 60 0,0
21.05.2019 07:00:00 8,9 6,4 - - 16 9 - - WNW 1019,1 10 54 0,0
21.05.2019 06:00:00 5,0 4,6 - - 11 6 - - W 1018,9 18 6 0,0
21.05.2019 05:00:00 4,2 3,5 - - 13 7 - - WSW 1018,7 12 0 0,0
21.05.2019 04:00:00 5,4 4,7 - - 8 4 - - WSW 1018,4 10 0 0,0
21.05.2019 03:00:00 5,2 4,1 - - 11 6 - - W 1018,3 15 0 0,0
21.05.2019 02:00:00 6,7 6,0 - - 8 4 - - W 1017,9 10 0 0,0
21.05.2019 01:00:00 6,4 4,6 - - 5 3 - - SW 1017,8 10 - 0,0
21.05.2019 00:00:00 8,3 6,1 - - 8 4 - - NW 1017,6 10 0 0,0
20.05.2019 23:00:00 9,8 6,9 - - 13 7 - - NW 1017,2 30 0 0,0
20.05.2019 22:00:00 10,0 6,3 - - 13 7 - - NNW 1017,0 10 0 0,0
20.05.2019 21:00:00 11,3 6,7 - - 13 7 - - NNW 1016,4 10 60 0,0
20.05.2019 20:00:00 13,7 7,3 - - 15 8 - - NNW 1015,8 10 18 0,0
20.05.2019 19:00:00 13,4 7,3 - - 15 8 - - N 1015,4 10 0 0,0

tt = temperature
td = dewpoint
tt -20cm = temperature -20cm
tt -100cm = temperature -100cm
ff = wind speed
fx = gusts
dd = wind direction
ppp = reduced air pressure
vv = visibility
sd = sunshine duration
rr = precipitation

Next stations